Other Public Products
Issued by NWS Grand Forks, ND

Home | Current Version | Previous Version | Graphics & Text | Print | Product List | Glossary On
Versions: 1 2 3 4 5 6 7 8 9 10 11 12 13 14 15 16 17 18 19 20 21 22 23 24 25 26 27 28 29 30 31 32 33 34 35 36 37 38 39 40 41 42 43 44 45 46 47 48 49 50
000
FPUS83 KFGF 070931
OPUFGF
PRAIRIE TO PINES WEATHER ROUNDUP
NATIONAL WEATHER SERVICE EASTERN NORTH DAKOTA/GRAND FORKS ND
300 AM CST WED DEC 07 2016

 **SATELLITE DATA USED TO AUGMENT SKY COVER AT AUTOMATED STATIONS**
 *****  WEATHER ACROSS EASTERN NORTH DAKOTA  *****

CITY           SKY/WX    TMP DP  RH WIND       PRES   REMARKS
GRAND FORKS    LGT SNOW  16  11  80 NW30G41   29.81R VSB 1   WCI  -4
GRAND FORKS AF LGT SNOW  14   9  79 NW23G33   29.83R WCI  -5
GRAND CITY NWS   N/A     14 N/A N/A NW21        N/A  WCI  -4
BUXTON           N/A     35  35  99 W23G39      N/A  WCI  23
DEVILS LAKE    LGT SNOW   9   5  85 NW31G39   29.88R FOG     WCI -14
FARGO          CLOUDY    13   7  77 W25G31    29.90R WCI  -7
WAHPETON ARPT  CLOUDY    12   7  79 W24       29.93S WCI  -8
$$

 *****  WEATHER ACROSS CENTRAL AND WESTERN NORTH DAKOTA  *****

CITY           SKY/WX    TMP DP  RH WIND       PRES   REMARKS
JAMESTOWN      PTCLDY     7   3  84 W26G38    29.94R BLWGSNOWWCI -15
BISMARCK       MOCLDY     4  -1  80 NW18G29   30.13R WCI -16
MINOT          LGT SNOW   7   2  80 W33G43    30.03R VSB 1   WCI -17
MINOT AFB      LGT SNOW   5   1  85 NW37G43   30.02R VSB 3/4 WCI -21
GARRISON         N/A      5   1  83 NW30G39   30.07R WCI -19
WILLISTON      CLOUDY     4  -3  73 NW13      30.24R WCI -13
DICKINSON      MIX PCPN   0  -6  76 NW25G33   30.12R WCI -24
HETTINGER      CLOUDY     0  -6  76 NW18G31   30.16R WCI -21
$$

 *****  OTHER OBSERVATIONS NORTHEAST NORTH DAKOTA  *****

CITY           SKY/WX    TMP DP  RH WIND       PRES   REMARKS
WALHALLA       LGT SNOW  14  14 100 NW22G33   29.80R WCI  -4
LANGDON        SNOW      10   9  92 NW35G45   29.78R VSB 1/2 WCI -13
CAVALIER         N/A     16  10  79 NW25G39   29.78R HAZE    WCI  -3
GRAFTON        FAIR      16  12  86 NW29G36   29.81R WCI  -4
CANDO          CLOUDY    10   5  79 NW29G35   29.91R WCI -11
FORT TOTTEN      N/A     10   8  93 NW14      29.95S WCI  -6
ROLLA          LGT SNOW   9   7  92 NW32G40   29.87R VSB 3/4 WCI -15
RUGBY            N/A      7   5  92 NW31G38   29.96R FOG     WCI -17
 ***** THE ABOVE OBSERVATIONS ARE NON NWS ARE NOT QUALITY
        CONTROLLED AND MAY MIS-REPORT RAIN FOR SNOW...
$$

 *****  OTHER OBSERVATIONS SOUTHEAST NORTH DAKOTA *****

CITY           SKY/WX    TMP DP  RH WIND       PRES   REMARKS
COOPERSTOWN    LGT SNOW   9   5  85 W28G39    29.88R WCI -13
VALLEY CITY    LGT SNOW   9   7  92 NW29G41   29.93R WCI -14
OAKES          NOT AVBL
GWINNER        CLOUDY    12   9  85 NW20G25   29.97R WCI  -6
SHEYENNE NWR     N/A     11   3  71 NW18      29.95S WCI  -7
BUFFALO          N/A      9   4  82 N29         N/A  WCI -14
WYNDMERE         N/A     12   7  79 W21         N/A  WCI  -6
 ***** THE ABOVE OBSERVATIONS ARE NON NWS ARE NOT QUALITY
       CONTROLLED AND MAY MIS-REPORT RAIN FOR SNOW...
$$

  *****  WEATHER ACROSS NORTHERN MINNESOTA  *****

CITY           SKY/WX    TMP DP  RH WIND       PRES   REMARKS
FLAG ISLAND    CLOUDY    25  21  86 NW21      29.52R WCI  10
WARROAD        LGT SNOW  23  19  86 W12       29.58  WCI  12
ROSEAU         LGT SNOW  21  18  86 W18G25    29.60R WCI   6
HALLOCK        LGT SNOW  18  16  93 W25G35    29.72R WCI  -1
THF RVR FALLS  LGT SNOW  16  13  88 W26G32    29.72R FOG     WCI  -3
HALSTAD          N/A     15  10  82 NW25        N/A  WCI  -4
FOSSTON        LGT SNOW  12  10  92 W25G32    29.74R WCI  -8
BAUDETTE       LGT SNOW  23  20  88 W13       29.53R FOG     WCI  11
WASKISH        LGT SNOW  21  19  93 W25G36    29.59R WCI   4
CROOKSTON      LGT SNOW  16  12  86 NW32      29.79R VSB 1   WCI  -5
$$
  *****  WEATHER ACROSS CENTRAL AND WEST MINNESOTA  *****

CITY           SKY/WX    TMP DP  RH WIND       PRES   REMARKS
BEMIDJI        LGT SNOW  15  12  85 W22G30    29.67R WCI  -2
PARK RAPIDS    LGT SNOW  14   8  77 W20G28    29.73R VSB 1   WCI  -3
WADENA         LGT SNOW  10   9  92 W15G25    29.79R WCI  -6
DETROIT LAKES  LGT SNOW  14  10  85 W17G30    29.81R WCI  -3
MOORHEAD       MIX PCPN  10   7  85 W22       29.89R WCI  -9
FERGUS FALLS   LGT SNOW  10   7  85 W21G31    29.94R WCI  -9
ELBOW LAKE     CLOUDY    10   7  86 NW18G25   29.91R WCI  -8
MORRIS MN      LGT SNOW  12   9  85 W24G30    29.93R WCI  -8
STAPLES        FLURRIES  10   9  92 W18       29.79R WCI  -8
WHEATON        MOCLDY    14   9  79 W17G33    29.97R WCI  -3
$$
  *****  WEATHER ELSEWHERE ACROSS MINNESOTA  *****

CITY           SKY/WX    TMP DP  RH WIND       PRES   REMARKS
DULUTH         FLURRIES  17  12  80 W23G31    29.60R WCI  -1
INTRNTL FALLS  LGT SNOW  22  19  89 SW5       29.51R FOG     WCI  16
ELY            LGT SNOW  21  19  93 W12G20    29.51R WCI   9
CLOQUET        FLURRIES  18  10  73 SW16G24   29.65R WCI   3
BRAINERD       LGT SNOW  14   9  80 W17       29.76R WCI  -3
HIBBING        LGT SNOW  18  14  84 W12G22    29.58R FOG     WCI   5
ALEXANDRIA     LGT SNOW  11   7  84 W21       29.86R FOG     WCI  -8
SAINT CLOUD    CLOUDY    15   9  76 W20       29.85R WCI  -2
MINNEAPOLIS    FLURRIES  17  10  74 W14G23    29.89R WCI   3
$$

  *****  WEATHER ACROSS SOUTH DAKOTA  *****

CITY           SKY/WX    TMP DP  RH WIND       PRES   REMARKS
SIOUX FALLS    CLEAR     10   3  73 W22G28    30.10R WCI -10
BROOKINGS      CLEAR      7   1  76 W22G30    30.03R WCI -14
WATERTOWN      CLOUDY     7   2  80 W21G26    30.00R WCI -13
HURON          CLEAR      7   1  76 NW20      30.13R WCI -13
SISSETON         N/A     13   5  70 NW28G37   29.94R WCI  -8
ABERDEEN       CLOUDY    10   1  67 W22G30    30.07R WCI -10
MITCHELL       CLEAR      9   2  73 W17G25    30.18R WCI  -9
PIERRE         PTCLDY     8   2  76 NW21G31   30.17R WCI -12
MOBRIDGE       CLOUDY     8  -1  66 W26G38    30.09R WCI -14
RAPID CITY     PTCLDY     5  -3  69 N14       30.16R WCI -12
$$

  *****  SOME WEATHER IN NEARBY STATES *****

CITY           SKY/WX    TMP DP  RH WIND       PRES   REMARKS
GLASGOW MT     CLOUDY     2  -6  69 NW30G39   30.32R WCI -23
GREAT FALLS MT CLOUDY    -3  -9  75 W5        30.35R WCI -13
CHEYENNE WY    LGT SNOW   5   1  83 NE13      29.90R FOG     WCI -12
SCOTTSBLUFF NE CLOUDY    12   1  61 NE7       30.08R WCI   1
OMAHA NE       MOCLDY    19   8  62 NW10      30.19S WCI   7
DES MOINES IA  CLOUDY    22  11  62 NW17      30.15R WCI   8
DAVENPORT IA   CLOUDY    24  17  74 W20       30.08R WCI  10
CHICAGO IL     MOCLDY    26  18  71 W16G25    30.00S WCI  14
EAU CLAIRE WI  CLOUDY    17  11  77 SW14G23   29.84S WCI   3
LA CROSSE WI   CLOUDY    21  12  68 SW15      29.98R WCI   8
$$

  *****  SOME NATIONAL WEATHER *****

CITY           SKY/WX    TMP DP  RH WIND       PRES   REMARKS
LA GUARDIA NY  LGT RAIN  41  39  93 N8        29.90R FOG
RALEIGH NC     PTCLDY    40  38  93 W5        29.95R
ATLANTA GA     MOCLDY    49  45  86 NW10      29.98S
NEW ORLEANS LA CLOUDY    56  55  97 N6        30.04S
OKLAHOMA CITY  PTCLDY    30  22  72 NE6       30.08F WCI  24
ALBUQUERQUE NM CLEAR     37  19  48 S7        29.90R
SALT LAKE CITY CLOUDY    25  17  72 N13       30.04R WCI  14
LOS ANGELES CA MOCLDY    53  51  93 NE3       30.02S
BOISE ID       CLEAR     16  13  88 CALM      30.20R
SEATTLE WA     PTCLDY    31  28  89 NE7       30.37R WCI  24
$$

*** WEATHER ACROSS MANITOBA...SASKATCHEWAN AND ONTARIO ***
                ***ONTARIO***

CITY           SKY/WX    TMP DP  RH WIND       PRES   REMARKS
GERALDTON      MOCLDY    25  21  86 W5        29.47R WCI  19
THUNDER BAY    PTCLDY    21  18  86 W6        29.51S WCI  14
SIOUX LOOKOUT  FLURRIES  21  18  86 SW3       29.46R
TORONTO        CLOUDY    37  36  93 W10       29.79R
BIG TROUT LK   LGT SNOW  19  18  93 NE8       29.71F WCI   9
PICKLE LAKE    NOT AVBL
DRYDEN         FLURRIES  19  18  93 SW7       29.45F WCI  10
KENORA         FLURRIES  23  21  93 NW8       29.48R WCI  14
$$
                *** MANITOBA***

CITY           SKY/WX    TMP DP  RH WIND       PRES   REMARKS
BRANDON        LGT SNOW  12   7  79 NW31G39   29.92R BLWGSNOWWCI -10
DAUPHIN        LGT SNOW  16  14  93 NW10      29.95R VSB 1   WCI   3
ISLAND LAKE    NOT AVBL
PILOT MOUND      N/A     10   7  85 NW26G36     N/A  WCI -11
THE PAS        CLOUDY    19  14  79 N14G22    30.10R WCI   6
THOMPSON       FLURRIES  12   9  85 N14G23    30.09R WCI  -3
WINNIPEG       LGT SNOW  23  19  86 NW29      29.68R BLWGSNOWWCI   6
LYNN LAKE      LGT SNOW   5   1  85 N12G17    30.23R WCI -11
CHURCHILL      LGT SNOW  25  23  93 NE24      30.12R BLWGSNOWWCI   9
GILLAM         FRZ DRZL  18  16  93 N12       30.01S WCI   5
$$
                ***SASKATCHEWAN***

CITY           SKY/WX    TMP DP  RH WIND       PRES   REMARKS
ESTEVAN        LGT SNOW   1  -4  78 NW26G35   30.15R BLWGSNOWWCI -23
KINDERSLEY     PTCLDY    -6 -11  77 NW14G21   30.36R WCI -26
LLOYDMINSTER   FLURRIES  -4  -9  77 NW16G23   30.38R WCI -25
PRINCE ALBERT  FLURRIES   5  -2  72 NW12      30.28R WCI -11
REGINA         CLOUDY     1  -2  85 NW21      30.23R WCI -20
YORKTON        CLOUDY     5   1  85 NW22G31   30.08R WCC1F1C2F2C3F3C4F4C5F5C6F6C7F7C8F8C9F9CaFaCbFbCcFcCdFdCe!



USA.gov is the U.S. government's official web portal to all federal, state and local government web resources and services.